TimeAKST,TemperatureF,Dew PointF,Humidity,Sea Level PressureIn,VisibilityMPH,Wind Direction,Wind SpeedMPH,Gust SpeedMPH,PrecipitationIn,Events,Conditions,WindDirDegrees,DateUTC
12:53 AM,23.0,19.0,85,29.28,10.0,North,9.2,-,N/A,,Clear,360,2012-12-14 09:53:00
1:53 AM,19.9,16.0,85,29.27,10.0,NW,4.6,-,N/A,,Clear,320,2012-12-14 10:53:00
3:53 AM,19.9,16.0,85,29.25,10.0,North,10.4,-,N/A,,Clear,350,2012-12-14 12:53:00
4:53 AM,23.0,18.0,81,29.24,10.0,North,10.4,-,N/A,,Clear,360,2012-12-14 13:53:00
5:53 AM,23.0,17.1,78,29.22,10.0,North,13.8,-,N/A,,Clear,10,2012-12-14 14:53:00
6:53 AM,21.9,17.1,82,29.20,10.0,NNE,15.0,-,N/A,,Clear,20,2012-12-14 15:53:00
7:53 AM,21.9,16.0,78,29.19,10.0,North,16.1,20.7,N/A,,Clear,10,2012-12-14 16:53:00
8:53 AM,21.9,16.0,78,29.19,10.0,North,12.7,24.2,N/A,,Clear,10,2012-12-14 17:53:00
9:53 AM,19.9,15.1,81,29.18,10.0,NNE,15.0,20.7,N/A,,Clear,20,2012-12-14 18:53:00
10:53 AM,19.9,15.1,81,29.18,10.0,NNE,15.0,21.9,N/A,,Clear,20,2012-12-14 19:53:00
11:53 AM,23.0,16.0,74,29.16,10.0,North,15.0,-,N/A,,Clear,10,2012-12-14 20:53:00
1:53 PM,26.1,18.0,71,29.13,10.0,NNE,15.0,23.0,N/A,,Clear,20,2012-12-14 22:53:00
2:53 PM,25.0,18.0,75,29.11,10.0,NNE,17.3,25.3,N/A,,Clear,20,2012-12-14 23:53:00
3:53 PM,26.1,19.0,75,29.10,10.0,NNE,17.3,26.5,N/A,,Clear,30,2012-12-15 00:53:00
4:53 PM,26.1,19.0,75,29.10,10.0,NNE,18.4,28.8,N/A,,Clear,20,2012-12-15 01:53:00
5:53 PM,26.1,18.0,71,29.08,10.0,North,23.0,29.9,N/A,,Clear,10,2012-12-15 02:53:00
6:53 PM,27.0,17.1,66,29.08,10.0,NNE,20.7,34.5,N/A,,Clear,20,2012-12-15 03:53:00
7:53 PM,26.1,17.1,69,29.07,10.0,North,21.9,28.8,N/A,,Clear,10,2012-12-15 04:53:00
8:53 PM,26.1,17.1,69,29.05,10.0,North,19.6,25.3,N/A,,Clear,10,2012-12-15 05:53:00
9:53 PM,26.1,16.0,66,29.05,10.0,North,20.7,31.1,N/A,,Clear,350,2012-12-15 06:53:00
10:53 PM,26.1,16.0,66,29.03,10.0,NNE,24.2,34.5,N/A,,Clear,30,2012-12-15 07:53:00
11:53 PM,26.1,15.1,63,29.03,10.0,North,17.3,33.4,N/A,,Clear,10,2012-12-15 08:53:00